sat.trackr.live / text

‹ back to catalog

STARLINK-34513

NORAD 64609 · 2025-137R

PAYLOAD ACTIVE UNKNOWN

§ Identity

Operator
Country
US
Launch date
2025-06-25
Launch site
AFETR
Launch vehicle
Mass (kg)
RCS (m²)

Purposes: comms

External: N2YO · Heavens-Above · Gunter

§ Orbital elements

Epoch: 2026-05-24T18:22:48.582048Z

Period
94.11 min
Inclination
53.1590°
Eccentricity
0.0001038
Mean motion
15.30196709 rev/d
Perigee alt
474.5 km
Apogee alt
475.9 km
Semi-major
6,853.4 km
B*
3.7927e-4
RAAN
341.7870°
Arg perigee
80.1592°
Mean anomaly
279.9526°
Rev number
5,247

§ Raw data

STARLINK-345131 64609U 25137R   26144.76584007  .00010889  00000+0  37927-3 0  99932 64609  53.1590 341.7870 0001038  80.1592 279.9526 15.30196709 52476

JSON: /api/v1/satellites/64609 · /tle

For live sub-satellite position, see the globe view (requires WebGL).

§ Visibility from observer

Set your observer location to see the next 7 days of passes ≥ 10°. The values pass through the URL so the page stays shareable.

No JS? Fill the form by hand. The geolocation button needs JavaScript.